TimeEDT,TemperatureF,Dew PointF,Humidity,Sea Level PressureIn,VisibilityMPH,Wind Direction,Wind SpeedMPH,Gust SpeedMPH,PrecipitationIn,Events,Conditions,WindDirDegrees,DateUTC
12:53 AM,61.0,48.9,64,30.16,10.0,NNE,10.4,-,N/A,,Clear,30,2012-09-20 04:53:00
1:53 AM,60.1,52.0,75,30.16,10.0,NNE,6.9,-,N/A,,Clear,20,2012-09-20 05:53:00
2:53 AM,61.0,53.1,75,30.16,10.0,NE,9.2,-,N/A,,Partly Cloudy,40,2012-09-20 06:53:00
3:53 AM,62.1,50.0,65,30.17,10.0,NE,12.7,-,N/A,,Clear,40,2012-09-20 07:53:00
4:53 AM,62.1,48.9,62,30.18,10.0,NE,15.0,23.0,N/A,,Clear,50,2012-09-20 08:53:00
6:53 AM,61.0,48.9,64,30.20,10.0,NE,12.7,19.6,N/A,,Clear,50,2012-09-20 10:53:00
7:53 AM,63.0,50.0,63,30.21,10.0,NE,13.8,23.0,N/A,,Partly Cloudy,50,2012-09-20 11:53:00
8:53 AM,64.9,51.1,61,30.22,10.0,ENE,16.1,23.0,N/A,,Clear,60,2012-09-20 12:53:00
9:53 AM,66.0,51.1,59,30.21,10.0,NE,17.3,-,N/A,,Clear,50,2012-09-20 13:53:00
10:53 AM,68.0,48.9,50,30.20,10.0,ENE,13.8,-,N/A,,Clear,70,2012-09-20 14:53:00
11:53 AM,69.1,50.0,51,30.20,10.0,NE,11.5,-,N/A,,Clear,50,2012-09-20 15:53:00
12:53 PM,70.0,50.0,49,30.18,10.0,NE,11.5,18.4,N/A,,Clear,50,2012-09-20 16:53:00
1:53 PM,70.0,48.9,47,30.18,10.0,ENE,10.4,-,N/A,,Clear,70,2012-09-20 17:53:00
2:53 PM,70.0,48.0,46,30.17,10.0,ENE,13.8,19.6,N/A,,Clear,60,2012-09-20 18:53:00
3:53 PM,66.9,46.9,49,30.15,10.0,NE,11.5,-,N/A,,Clear,50,2012-09-20 19:53:00
4:53 PM,66.0,48.9,54,30.16,10.0,NNE,12.7,-,N/A,,Clear,30,2012-09-20 20:53:00
5:53 PM,64.0,50.0,60,30.15,10.0,NNE,4.6,-,N/A,,Clear,30,2012-09-20 21:53:00
6:53 PM,59.0,48.9,69,30.17,10.0,NNE,6.9,-,N/A,,Clear,20,2012-09-20 22:53:00
7:53 PM,57.0,48.9,74,30.17,10.0,North,5.8,-,N/A,,Clear,10,2012-09-20 23:53:00
8:53 PM,55.9,48.9,77,30.17,10.0,North,5.8,-,N/A,,Clear,10,2012-09-21 00:53:00
9:53 PM,55.9,48.9,77,30.17,10.0,NNE,5.8,-,N/A,,Clear,30,2012-09-21 01:53:00
10:53 PM,54.0,48.0,80,30.16,10.0,NE,5.8,-,N/A,,Clear,50,2012-09-21 02:53:00
11:53 PM,53.1,46.9,80,30.15,10.0,NNE,3.5,-,N/A,,Clear,20,2012-09-21 03:53:00